NOAA 16 DEB

Satellite information

Favourite Embed

Satellite Type and Status

DEBRISIN ORBIT

Key statistics

Satellite NOAA 16 DEB at a glance.

Uptime

9113

Days in orbit

Revolutions

≈ 14.2

Per day

Orbit

SSO

Sun Synchronous Orbit

Inclination

98.6

Latest

Satellite identification and parameters

Extended collection of information and parameters for NOAA 16 DEB.

Object identification

Identified? True

Debris? True

Object name: NOAA 16 DEB

International designator: 2000-055TW

Object number (NORAD): 42426

Object ID (CCSDS): 42426

Country: UNITED STATES OF AMERICA (US)

Current information (Y/N): Y

RCS size: SMALL

Orbital parameters

Period: 101.176 minutes

Inclination: 98.6036 deg

SMA: 7192.481 km

Apoapsis: 822.5 km

Periapsis: 806.193 km

RAAN: 261.4227 deg

Eccentricy: 0.00113358

Argument of periapsis: 288.8194 deg

Mean anomaly: 71.1755 deg

Mean motion: 14.23261346 rev/day

Mean motion (dot): 0.00002604 rev/day2

B* drag term: 0.001168309 1/REarth

Two-line elements (TLE)

Creation date: Aug. 25, 2025, 2:12 a.m.

Reference frame: TEME

Reference center: EARTH

Epoch: Aug. 24, 2025, 8:30 p.m. UTC

TLE line 0: 0 NOAA 16 DEB

TLE line 1: 1 42426U 00055TW 25236.85459513 .00002604 00000-0 11683-2 0 9999

TLE line 2: 2 42426 98.6036 261.4227 0011336 288.8194 71.1755 14.23261346466071

Live tracking on map

Real-time ground track for satellite NOAA 16 DEB.

In-orbit conjunctions

A list of the most updated potential collisions computed for object NOAA 16 DEB.

Target Orbit TCA Probability of collision Miss distance Type
SL-12 R/B(AUX MOTOR) LEO 2025-04-20 00:47:58 0.0002279889 367.0 (m) ROCKET BODY
NOAA 11 SSO 2024-12-11 23:55:57 0.0001048826 942.0 (m) PAYLOAD
FENGYUN 1C DEB SSO 2024-09-25 21:43:03 0.0001080423 698.0 (m) DEBRIS
SL-16 R/B LEO 2024-09-02 17:25:44 0.000180735 146.0 (m) ROCKET BODY

Associated space launch

The NOAA K, L and M POES satellites begin the fifth generation of improved environmental monitoring in support of NOAA missions. The instrument payload has significant improvements and additions/deletions. The instrument changes have effected the spacecraft subsystems and data formats.

NOAA 16 DEB was lifted into orbit during the mission ‘Titan II SLV | NOAA 16’, on board a Titan II SLV space rocket.

The launch took place on Sept. 21, 2000, 10:22 a.m. from Space Launch Complex 4W.

For more information about the launch, click the button.

Launch to space Titan II SLV | NOAA 16
Titan II SLV | NOAA 16

Agency: N/A

Status: Launch Successful

Launch date: Sept. 21, 2000, 10:22 a.m. UTC

Rocket: Titan II SLV

Launch pad: Space Launch Complex 4W

Location: Vandenberg SFB, CA, USA

...

Latest news about this satellite

There are no fresh news available about this satellite. Check back as we update our databases every day.


Newsletter sign-up

Weekly statistics, charts and insights to help you stay on top of the space industry.